Regional Weather Roundup
Issued by NWS Newport/Morehead, NC

Current Version | Previous Version | Text Only | Print | Product List | Glossary On
Versions: 1 2 3 4 5 6 7 8 9 10 11 12 13 14 15 16 17 18 19 20 21 22 23 24 25 26 27 28 29 30 31 32 33 34 35 36 37 38 39 40 41 42 43 44 45 46 47 48 49 50
000 ASUS42 KMHX 292313 RWRMHX WEATHER ROUNDUP FOR EASTERN NORTH CAROLINA NATIONAL WEATHER SERVICE NEWPORT/MOREHEAD CITY NC 700 PM EDT MON JUN 29 2015 NOTE: "FAIR" INDICATES FEW OR NO CLOUDS BELOW 12,000 FEET WITH NO SIGNIFICANT WEATHER AND/OR OBSTRUCTIONS TO VISIBILITY NCZ015>017-031-032-045>047-102-103-300000- NORTH COAST CITY SKY/WX TMP DP RH WIND PRES REMARKS EDENTON N/A 83 66 57 SE9 29.94S ELIZABETH CITY MOSUNNY 80 69 69 E9 29.95S KITTY HAWK MOCLDY 81 67 62 SE7 29.95S MANTEO PTSUNNY 79 69 70 SE8 29.96S $$ NCZ045>047-081-094-103-104-300000- CENTRAL COAST CITY SKY/WX TMP DP RH WIND PRES REMARKS FRISCO CLOUDY 79 71 76 CALM 29.96R SWANQUARTER N/A 84 N/A N/A SE2G8 29.91S $$ NCZ095-097-098-100-101-300000- SOUTHERN COAST CITY SKY/WX TMP DP RH WIND PRES REMARKS BEAUFORT PTSUNNY 81 73 76 SW10 29.95R CEDAR ISLAND N/A 84 N/A N/A S5 29.97S JACKSONVILLE SUNNY 82 71 69 S9 29.94R PINEY ISLAND PTCLDY N/A N/A N/A S5 29.94R WILMINGTON MOSUNNY 83 72 69 SE8 29.94R $$ NCZ011>013-027>030-043-044-078>080-089-090>093-098-300000- COASTAL PLAIN CITY SKY/WX TMP DP RH WIND PRES REMARKS AHOSKIE SUNNY 80 69 69 NE3 29.93S CLINTON MOSUNNY 84 70 61 CALM 29.93R ELIZABETHTOWN MOSUNNY 86 62 43 S5 29.93R GOLDSBORO SUNNY 85 70 60 S5 29.91R GREENVILLE MOSUNNY 82 68 61 S7 29.95R HAVELOCK MOSUNNY 83 70 64 VRB7 29.95R KENANSVILLE SUNNY 83 64 52 CALM 29.94R KINSTON MOSUNNY 84 66 54 S5 29.94R NEW BERN MOSUNNY 84 66 54 S7 29.95R RICHLANDS SUNNY 84 64 51 S9 29.94R ROCKY MOUNT SUNNY 85 65 51 CALM 29.92S WASHINGTON SUNNY 83 66 57 SE7 29.94R WHITEVILLE MOSUNNY 82 64 54 CALM 29.93R $$ AMZ130-135-150-152-154-156-158-170-250-252-270-ANZ085-086-088-633-658-670-300000- MARINE OBSERVATIONS STATION/POSITION TIME TEMP WIND PRES WAVE SWELL AIR SEA DIR/SP/G HT/PER HT/PER (UTC) (F) (DEG/KT/KT) (MB) (FT/S) (FT/S) CHESAPEAKE LIGHT 2300 76 130/ 10/ 11 1015.1 64 E VA BEACH 2250 77 77 90/ 6/ 6 1014.5 3/ 8 3/ 8 DUCK 2200 78 68 100/ 9/ 10 1013.6 2 E DUCK 2211 74 N/A 2/ 8 OREGON INLET 2200 78 80 60/ 4/ 8 1014.4 13E OREGON INLT 2300 76 N/A 3/ 8 HATTERAS CG 2200 80 81 170/ 2/ 4 1013.8 DIAMOND BUOY 2250 79 81 260/ 4/ 8 1014.2 4/ 8 3/ 8 CAPE LOOKOUT 2300 81 210/ 10/ 13 1013.8 BEAUFORT LAB 2200 80 81 200/ 7/ 9 1013.2 30 SE NEW RVR IN 2208 81 82 210/ 12/ 16 1014.0 27 SE WRIGHTSVLE 2200 81 210/ 12/ 16 N/A 5 SE WRIGHTSVLE 2208 81 80 210/ 12/ 16 1013.7 225 S CAPE HAT 2250 81 80 210/ 17/ 21 1017.6 6/ 7 41 SE CHARLESTON 2250 82 83 210/ 12/ 14 1014.5 4/ 7 3/ 7 $$

USA.gov is the U.S. government's official web portal to all federal, state and local government web resources and services.